{"data":{"norad_id":60453,"epoch":"2026-09-19T21:28:54.044544Z","epoch_age_seconds":70641,"freshness":"FRESH","line1":"1 60453U 24146B   26262.89506996  .00001919  00000+0  11154-3 0  9999","line2":"2 60453  45.0033 334.6213 0008748 131.8767 228.2859 15.16078619115240","mean_motion":15.16078619,"eccentricity":0.0008748,"inclination_deg":45.0033,"raan_deg":334.6213,"arg_perigee_deg":131.8767,"mean_anomaly_deg":228.2859,"bstar":0.00011154,"rev_number":11524,"period_min":94.981881675095,"perigee_km":511.67342325465,"apogee_km":523.73839000409,"semimajor_km":6895.8429066294,"source":"CELESTRAK","updated_at":"2026-09-20T09:00:33.980233Z"}}